Vertical_Velocity
-7 7 -4 -1 -5 -6 -1 -3 -21 25 7 2 2 -29 2 -22 11 4 5 5 5 5 18 0 4 12 9 -10 -1 -10 -9 11 -1 -4 -2 -8 2 3 4 7 1 1 -3 2
3 -3 -1 1 -1 -1 6 -4 18 -34 19 -2 14 -42 -10 7 -17 -2 11 8 1 4 11 1 -2 10 12 3 -6 -0 -4 6 0 -6 6 -3 1 3 15 7 3 -0 4 3
1 5 -0 -3 -6 -10 8 -15 10 -13 12 -5 9 -45 -17 -2 0 11 17 -20 -6 -11 -5 12 1 -1 6 0 -1 1 1 4 6 -2 1 -2 -10 -7 -6 -18 -8 2 -1 -6
4 -0 -1 -2 -8 -19 -0 -17 -8 2 -9 -21 32 -40 -44 -1 8 -5 3 4 -7 -4 -11 8 10 -2 8 6 -0 3 2 1 3 -0 -4 -3 1 5 10 10 11 8 5 1
3 -0 -1 -10 -1 -13 -3 1 -10 -3 -9 -16 9 1 -52 13 -0 4 14 -0 -5 2 -4 8 7 5 16 10 -1 0 -0 -2 2 -4 -6 -5 -3 9 1 -2 -3 -2 -2 2
-13 2 -5 -3 6 1 -5 -2 -3 -2 -5 2 -8 4 7 -12 3 1 2 -10 -0 3 7 9 1 9 12 6 6 -8 -8 -2 -0 -4 2 -2 4 4 -3 -0 -0 3 1 0
20 -2 -7 -10 -8 -6 2 -3 -9 -12 6 1 3 3 -7 4 6 3 5 6 -3 -5 8 10 5 2 7 3 -4 3 8 1 -1 -3 13 3 7 6 4 -1 1 -3 2 -3
-4 13 3 -1 -8 -2 -0 -1 13 -7 1 1 2 5 2 -3 -9 -1 6 3 3 -0 7 5 7 5 3 3 -0 -2 3 -9 -7 -9 1 7 -3 7 -3 3 4 -2 -1 -0
-1 1 -0 -5 -4 1 6 8 -3 -4 5 -2 7 3 10 2 4 6 2 6 6 16 1 16 15 6 2 3 1 1 1 0 -4 1 3 -1 -6 6 6 4 2 -1 -2 -3
3 5 -2 -2 4 2 -2 -6 -5 1 -9 -2 12 10 3 -1 3 -1 4 10 4 8 3 6 2 1 2 2 1 6 3 0 -2 -0 -0 -1 -1 5 6 0 5 3 -1 -5
-1 -4 1 1 3 2 5 5 5 -2 2 -0 19 4 2 6 5 9 15 8 11 9 -1 -9 5 23 10 2 6 5 3 5 3 1 -3 2 -2 -2 5 -10 3 7 1 -4
-0 -7 -3 1 5 -2 -1 4 2 2 1 15 7 2 15 10 12 7 11 3 8 4 8 17 28 7 7 4 11 5 0 2 2 -1 -2 1 -2 3 6 6 6 3 -9 5
-3 2 4 -1 4 3 5 -3 14 3 10 19 5 0 13 13 9 9 12 7 2 4 10 17 17 22 1 5 4 1 7 1 -2 2 0 7 3 1 0 -2 5 1 1 5
-2 -4 4 -1 4 -4 -7 -4 4 5 7 18 -2 4 10 9 6 8 10 10 10 9 14 11 15 8 24 9 0 9 -3 -2 3 5 -1 2 5 0 3 3 9 5 8 3
-5 -3 -2 -2 1 3 -4 3 16 10 8 9 12 11 11 8 5 6 8 9 10 7 5 6 7 9 15 26 4 4 7 2 70 -8 -2 7 4 37 -6 5 7 2 26 3
-7 -4 -2 -3 1 3 -4 6 16 9 1 -5 -6 -8 -1 3 1 3 5 4 6 8 5 4 4 3 4 5 17 36 7 4 1 -28 4 38 -16 4 33 -0 6 12 4 24
4 -5 -3 -3 -4 3 12 -5 -1 9 17 5 10 3 4 4 10 6 -1 2 4 1 -0 2 4 7 0 2 -5 -1 29 21 -5 20 -7 -3 -7 -12 10 -9 5 -10 -3 -1
-3 1 -3 -6 -4 -4 0 6 -6 2 2 4 15 6 8 2 -1 1 4 1 -4 -2 -1 1 -3 -4 -0 -3 -4 -6 -7 11 24 7 5 34 7 1 33 -14 40 -7 -3 1
-2 -2 -1 -4 -5 -1 -7 -1 9 -1 -3 1 4 3 -0 -3 -1 -1 4 9 2 4 1 -1 5 1 -3 -2 -4 -2 -1 -1 4 4 11 14 13 11 1 -4 -1 -4 -1 1
-3 -1 -1 -3 1 2 -1 -3 -10 -4 2 -2 -1 -1 -2 -1 -3 -7 -11 -6 -0 -4 -4 -7 -5 -3 -0 -3 -4 1 -2 4 1 16 -1 3 13 10 8 14 3 1 0 9
-5 -4 -2 -2 -1 -2 3 1 -2 -3 -3 -1 -3 -4 -6 -6 -6 -0 1 0 -0 3 -3 -0 2 -0 -6 -9 -6 -6 -9 -6 0 -9 -3 -6 -1 7 2 1 9 11 3 8
-2 -2 -1 -0 -1 4 3 -3 -3 -3 -2 -1 -3 -4 -5 -3 -2 -1 -1 3 0 4 -1 -6 1 2 2 -5 -0 -8 -13 -3 -5 1 2 0 4 -6 8 6 11 4 10 5
-3 -2 -3 -2 -2 -2 -3 -1 -1 2 -0 -2 -3 -4 -5 -5 -5 -6 -7 -7 -4 -8 1 1 -3 -7 1 2 1 -5 5 -9 -9 7 -6 -6 -7 1 -6 -3 -1 1 -0 -4
-2 -2 -1 -2 -1 -1 -1 -1 -1 -1 -1 -4 -7 -4 -6 -4 -2 -2 -1 -1 -2 1 -3 -11 -6 -10 -6 -10 -5 3 -5 -5 -7 -7 -2 2 -1 -1 -4 -13 -12 -11 -6 -9
-3 -2 -2 -1 -2 -3 -2 -1 -1 -2 -3 -4 -3 -8 -7 -6 -5 -4 -6 -8 -9 -10 -5 -3 -9 -9 -10 -7 -9 -8 -3 -5 -3 -5 -12 -7 -1 -2 -6 -4 -0 4 0 3
-2 -1 -2 -2 -1 0 -0 -1 -2 -2 -1 -1 -2 -2 -2 -3 -1 -1 -0 -1 -3 -3 -0 1 2 -3 -3 -7 -8 -12 -11 -4 -6 -6 -4 -5 -7 -7 -8 -4 2 -3 5 2
Height
5695 5692 5687 5682 5677 5673 5668 5657 5659 5665 5665 5635 5651 5652 5655 5674 5661 5668 5663 5654 5656 5659 5668 5673 5679 5686 5690 5696 5703 5709 5715 5717 5723 5730 5733 5741 5747 5755 5758 5764 5769 5773 5778 5784
5683 5676 5669 5663 5660 5656 5649 5641 5638 5637 5633 5620 5618 5620 5641 5639 5643 5639 5638 5628 5627 5633 5640 5649 5657 5667 5672 5679 5687 5693 5700 5705 5710 5716 5723 5731 5738 5744 5748 5752 5759 5764 5769 5774
5668 5660 5652 5646 5640 5636 5630 5621 5618 5604 5609 5603 5591 5588 5597 5617 5610 5608 5599 5592 5604 5610 5615 5627 5637 5647 5654 5663 5672 5679 5684 5690 5696 5702 5709 5717 5723 5727 5730 5737 5746 5753 5760 5764
5652 5644 5635 5628 5620 5612 5610 5600 5595 5587 5578 5575 5580 5550 5570 5575 5571 5567 5565 5566 5572 5583 5591 5602 5615 5625 5637 5647 5655 5662 5669 5675 5683 5690 5695 5705 5713 5717 5725 5734 5742 5749 5752 5756
5635 5623 5612 5606 5597 5587 5590 5579 5573 5566 5561 5552 5560 5547 5550 5551 5546 5545 5540 5537 5541 5553 5565 5578 5591 5603 5617 5626 5637 5645 5654 5661 5669 5676 5683 5692 5700 5706 5715 5721 5728 5734 5739 5745
5616 5601 5590 5585 5580 5573 5569 5565 5562 5559 5554 5552 5549 5546 5546 5539 5535 5532 5528 5526 5528 5532 5539 5552 5566 5579 5593 5607 5620 5629 5636 5646 5655 5663 5671 5678 5687 5696 5704 5711 5717 5724 5729 5734
5606 5585 5573 5568 5568 5562 5560 5560 5559 5557 5552 5550 5548 5544 5541 5533 5528 5524 5519 5514 5515 5520 5528 5536 5547 5561 5576 5590 5604 5615 5626 5635 5642 5653 5661 5667 5676 5686 5693 5701 5708 5713 5718 5721
5588 5572 5566 5562 5561 5561 5559 5558 5556 5551 5548 5545 5543 5539 5533 5527 5521 5515 5510 5504 5505 5512 5518 5531 5541 5549 5561 5576 5590 5600 5611 5620 5628 5638 5648 5658 5665 5674 5681 5689 5696 5700 5706 5712
5569 5561 5559 5559 5558 5558 5557 5555 5552 5547 5546 5541 5539 5536 5531 5526 5518 5511 5504 5502 5501 5505 5514 5522 5532 5541 5551 5564 5577 5588 5598 5608 5619 5629 5636 5645 5655 5662 5669 5678 5684 5689 5696 5703
5559 5561 5559 5559 5558 5556 5552 5550 5549 5545 5540 5539 5537 5533 5528 5522 5514 5507 5502 5503 5502 5505 5510 5517 5528 5535 5544 5555 5567 5577 5587 5598 5608 5619 5627 5635 5642 5650 5658 5667 5672 5678 5687 5693
5558 5558 5559 5558 5557 5554 5553 5550 5546 5541 5538 5536 5536 5532 5527 5522 5516 5511 5506 5503 5503 5505 5508 5515 5523 5531 5540 5549 5558 5568 5577 5588 5600 5609 5616 5624 5633 5639 5647 5649 5656 5665 5673 5681
5560 5559 5557 5558 5557 5554 5551 5546 5541 5536 5535 5535 5533 5532 5532 5528 5522 5516 5510 5506 5504 5505 5507 5512 5518 5524 5533 5542 5552 5558 5567 5578 5589 5599 5608 5614 5623 5630 5636 5642 5648 5656 5663 5670
5562 5560 5558 5558 5558 5554 5549 5544 5540 5534 5530 5532 5533 5534 5535 5532 5528 5523 5517 5512 5509 5507 5506 5507 5511 5517 5527 5536 5545 5551 5560 5568 5578 5589 5599 5606 5613 5621 5626 5631 5638 5645 5652 5659
5563 5561 5560 5559 5556 5553 5549 5546 5540 5535 5530 5530 5531 5534 5535 5533 5529 5525 5522 5518 5514 5512 5509 5508 5510 5515 5520 5529 5538 5546 5553 5559 5568 5578 5588 5596 5603 5609 5615 5622 5628 5636 5642 5649
5565 5564 5562 5560 5558 5556 5553 5551 5546 5540 5539 5537 5537 5536 5535 5533 5530 5527 5524 5521 5517 5514 5514 5512 5513 5512 5514 5519 5530 5539 5546 5553 5557 5569 5578 5587 5594 5591 5604 5611 5618 5626 5633 5637
5566 5565 5563 5563 5560 5558 5555 5554 5552 5547 5542 5540 5540 5538 5537 5536 5532 5529 5526 5522 5520 5516 5513 5513 5515 5514 5514 5516 5519 5525 5534 5544 5553 5557 5568 5575 5581 5588 5589 5601 5608 5613 5617 5624
5565 5564 5563 5562 5562 5560 5558 5553 5552 5551 5549 5545 5543 5540 5538 5537 5535 5531 5527 5525 5521 5519 5517 5514 5514 5514 5514 5515 5518 5519 5519 5529 5540 5542 5553 5560 5572 5575 5571 5588 5595 5599 5606 5611
5564 5561 5561 5559 5559 5560 5557 5552 5551 5551 5549 5547 5545 5541 5539 5537 5535 5532 5528 5525 5524 5522 5519 5517 5515 5514 5514 5514 5516 5519 5523 5521 5522 5534 5541 5542 5552 5559 5560 5572 5573 5585 5591 5597
5565 5562 5559 5558 5556 5557 5556 5554 5549 5549 5549 5546 5543 5541 5538 5534 5532 5531 5529 5527 5525 5523 5521 5519 5517 5516 5516 5514 5514 5517 5519 5519 5516 5520 5524 5534 5538 5544 5551 5557 5565 5570 5576 5582
5566 5564 5562 5558 5555 5554 5553 5552 5550 5547 5546 5545 5542 5540 5538 5536 5532 5530 5529 5527 5524 5523 5520 5518 5516 5515 5515 5514 5513 5512 5513 5517 5515 5518 5519 5521 5526 5532 5537 5539 5552 5554 5562 5568
5565 5562 5561 5559 5556 5553 5552 5549 5548 5548 5548 5542 5540 5538 5536 5535 5532 5530 5527 5524 5523 5520 5519 5517 5516 5514 5512 5512 5510 5509 5509 5512 5513 5511 5515 5518 5520 5521 5525 5530 5536 5540 5548 5553
5564 5561 5559 5557 5555 5553 5550 5549 5548 5545 5541 5539 5536 5533 5532 5530 5528 5525 5524 5522 5519 5515 5513 5512 5511 5510 5509 5508 5507 5505 5504 5504 5505 5507 5508 5509 5514 5516 5518 5520 5524 5529 5533 5538
5563 5560 5557 5555 5552 5548 5546 5544 5542 5540 5537 5534 5532 5529 5527 5525 5522 5520 5518 5516 5514 5513 5511 5508 5507 5505 5503 5503 5501 5500 5497 5499 5498 5497 5498 5501 5504 5509 5512 5512 5511 5515 5522 5524
5562 5558 5555 5552 5549 5546 5543 5541 5537 5534 5532 5529 5525 5522 5520 5519 5517 5515 5514 5512 5510 5507 5504 5503 5502 5499 5497 5494 5493 5488 5487 5487 5487 5488 5489 5489 5491 5495 5498 5502 5503 5506 5509 5512
5562 5558 5555 5552 5549 5545 5542 5539 5536 5533 5530 5527 5523 5519 5515 5511 5508 5505 5505 5504 5503 5501 5497 5494 5492 5490 5488 5485 5482 5480 5477 5476 5475 5475 5475 5476 5477 5478 5483 5486 5489 5494 5496 5498
5560 5557 5554 5550 5547 5544 5542 5538 5534 5530 5527 5523 5519 5515 5510 5504 5499 5496 5494 5494 5493 5492 5489 5485 5480 5478 5475 5472 5471 5470 5467 5464 5463 5462 5461 5461 5462 5464 5466 5469 5471 5473 5477 5479